This is the latest recevied weather packets stored in our database for station/object KB4RFE. If no packets are shown the sender has not sent any weather packets the latest 10 day(s).
| Time | Temp. | Humidity | Pressure | Rain* | Wind** | Luminosity | Snow |
|---|---|---|---|---|---|---|---|
| 1788381815 | 32.22° C | 62% | 1020 hPa | 0 mm | - | 488 W/m² | - |
| 1788381511 | 32.22° C | 62% | 1019.9 hPa | 0 mm | - | 503 W/m² | - |
| 1788381206 | 32.22° C | 63% | 1020 hPa | 0 mm | - | 521 W/m² | - |
| 1788380906 | 32.22° C | 62% | 1020.2 hPa | 0 mm | - | 538 W/m² | - |
| 1788380602 | 32.78° C | 63% | 1020 hPa | 0 mm | - | 555 W/m² | - |
| 1788380298 | 32.78° C | 61% | 1020.1 hPa | 0 mm | - | 571 W/m² | - |
| 1788379998 | 32.78° C | 60% | 1020.1 hPa | 0 mm | - | 587 W/m² | - |
| 1788379693 | 32.78° C | 58% | 1020.2 hPa | 0 mm | - | 605 W/m² | - |
| 1788379388 | 32.78° C | 60% | 1020.3 hPa | 0 mm | - | 619 W/m² | - |
| 1788379084 | 32.78° C | 59% | 1020.3 hPa | 0 mm | - | 634 W/m² | - |
| 1788378783 | 32.78° C | 60% | 1020.5 hPa | 0 mm | - | 645 W/m² | - |
| 1788378478 | 32.78° C | 58% | 1020.5 hPa | 0 mm | - | 659 W/m² | - |
| 1788378173 | 32.78° C | 61% | 1020.4 hPa | 0 mm | - | 671 W/m² | - |
| 1788377868 | 32.78° C | 63% | 1020.6 hPa | 0 mm | - | 683 W/m² | - |
| 1788377564 | 32.78° C | 61% | 1020.7 hPa | 0 mm | - | 697 W/m² | - |
| 1788377262 | 32.78° C | 64% | 1020.7 hPa | 0 mm | - | 705 W/m² | - |
| 1788376962 | 32.78° C | 63% | 1020.8 hPa | 0 mm | - | 716 W/m² | - |
| 1788376656 | 32.22° C | 61% | 1020.7 hPa | 0 mm | - | 723 W/m² | - |
| 1788376356 | 32.22° C | 61% | 1020.7 hPa | 0 mm | - | 730 W/m² | - |
| 1788376051 | 32.22° C | 62% | 1020.8 hPa | 0 mm | - | 740 W/m² | - |
| 1788375757 | 32.22° C | 62% | 1020.8 hPa | 0 mm | - | 731 W/m² | - |
| 1788375447 | 32.22° C | 65% | 1020.8 hPa | 0 mm | - | 724 W/m² | - |
| 1788375143 | 32.22° C | 69% | 1021 hPa | 0 mm | - | 724 W/m² | - |
| 1788374838 | 32.22° C | 67% | 1021 hPa | 0 mm | - | 736 W/m² | - |
| 1788374534 | 32.78° C | 66% | 1020.8 hPa | 0 mm | - | 711 W/m² | - |
* Rain latest hour (hover to see other rain measurements)
** Current wind speed in m/s (hover to see current wind gust speed)